SV3CQY Weather Reports


time (UTC)temp
F
wind
direction
speed
knots
gust
knots
rain 1hr
in
rain 24hr
in
rain mn
in
humidity
%
barometer
mb
20260507171528 67 127 0.0 0.9 0.00 0.00 0.00 63 1016.3
20260507171009 67 0 0.0 0.9 0.00 0.00 0.00 61 1016.4
20260507170040 67 60 0.0 0.9 0.00 0.00 0.00 60 1016.5
20260507165510 67 0 0.0 0.9 0.00 0.00 0.00 61 1016.5
20260507165012 68 0 0.0 1.7 0.00 0.00 0.00 61 1016.5
20260507164527 68 0 0.0 1.7 0.00 0.00 0.00 60 1016.6
20260507164015 68 316 0.9 1.7 0.00 0.00 0.00 60 1016.6
20260507163509 69 316 0.9 1.7 0.00 0.00 0.00 59 1016.6
20260507163027 69 318 0.0 0.9 0.00 0.00 0.00 57 1016.6
20260507162509 70 340 0.0 0.9 0.00 0.00 0.00 57 1016.5
20260507162012 70 0 0.0 0.0 0.00 0.00 0.00 56 1016.5
20260507161529 71 0 0.0 1.7 0.00 0.00 0.00 50 1016.3
20260507161013 71 0 0.0 1.7 0.00 0.00 0.00 49 1016.3
20260507160509 71 0 0.0 0.9 0.00 0.00 0.00 50 1016.3
20260507160032 71 120 0.0 1.7 0.00 0.00 0.00 49 1016.3
20260507155010 71 0 0.0 0.9 0.00 0.00 0.00 51 1016.4
20260507154528 70 37 0.0 0.9 0.00 0.00 0.00 49 1016.5
20260507154010 70 37 0.0 0.9 0.00 0.00 0.00 51 1016.5
20260507153507 71 0 0.0 1.7 0.00 0.00 0.00 50 1016.6
20260507153025 71 75 0.0 1.7 0.00 0.00 0.00 48 1016.7
20260507152511 71 13 0.9 1.7 0.00 0.00 0.00 49 1016.7
20260507152015 71 0 0.0 0.9 0.00 0.00 0.00 46 1016.5
20260507151527 71 0 0.0 3.5 0.00 0.00 0.00 47 1016.5
20260507151012 70 1 0.0 3.5 0.00 0.00 0.00 47 1016.7
20260507150509 71 1 0.9 2.6 0.00 0.00 0.00 45 1016.5
20260507150032 71 356 0.0 1.7 0.00 0.00 0.00 46 1016.6
20260507145509 70 37 0.0 0.9 0.00 0.00 0.00 49 1016.6
20260507145008 70 0 0.0 0.9 0.00 0.00 0.00 50 1016.5
20260507144527 70 356 0.0 3.5 0.00 0.00 0.00 51 1016.5
20260507144009 70 0 0.9 3.5 0.00 0.00 0.00 56 1016.7
20260507143511 70 345 0.9 3.5 0.00 0.00 0.00 53 1016.7
20260507143028 70 0 0.0 2.6 0.00 0.00 0.00 55 1016.6
20260507142509 71 101 1.7 4.3 0.00 0.00 0.00 50 1016.5
20260507142012 71 0 0.9 4.3 0.00 0.00 0.00 48 1016.4
20260507141526 71 42 1.7 3.5 0.00 0.00 0.00 45 1016.2
20260507141010 72 96 0.9 3.5 0.00 0.00 0.00 46 1016.5
20260507140513 71 104 2.6 3.5 0.00 0.00 0.00 43 1016.3
20260507140027 71 81 1.7 3.5 0.00 0.00 0.00 47 1016.3
20260507135514 72 72 0.9 3.5 0.00 0.00 0.00 44 1016.2
20260507135012 72 105 0.0 2.6 0.00 0.00 0.00 44 1016.5
20260507134526 72 83 0.0 1.7 0.00 0.00 0.00 42 1016.6
20260507134010 72 73 0.9 1.7 0.00 0.00 0.00 41 1016.5
20260507133512 71 338 0.9 1.7 0.00 0.00 0.00 43 1016.6
20260507133026 72 356 0.9 1.7 0.00 0.00 0.00 40 1016.4
20260507132514 72 354 0.9 2.6 0.00 0.00 0.00 42 1016.4
20260507132011 72 350 1.7 2.6 0.00 0.00 0.00 41 1016.3
20260507131534 73 50 0.9 2.6 0.00 0.00 0.00 42 1016.4
20260507131011 73 352 0.9 3.5 0.00 0.00 0.00 39 1016.4
20260507130511 73 360 0.9 4.3 0.00 0.00 0.00 41 1016.3
20260507130027 73 61 0.9 4.3 0.00 0.00 0.00 39 1016.3
20260507125512 74 56 0.9 4.3 0.00 0.00 0.00 37 1016.3
20260507125014 74 345 1.7 4.3 0.00 0.00 0.00 39 1016.3
20260507124531 74 34 1.7 4.3 0.00 0.00 0.00 38 1016.4
20260507124011 73 314 1.7 5.2 0.00 0.00 0.00 40 1016.4
20260507123511 73 352 1.7 5.2 0.00 0.00 0.00 38 1016.4
20260507123028 74 56 1.7 5.2 0.00 0.00 0.00 40 1016.5
20260507122507 73 334 1.7 4.3 0.00 0.00 0.00 40 1016.6
20260507122010 73 360 0.9 4.3 0.00 0.00 0.00 42 1016.7
20260507121526 73 344 1.7 4.3 0.00 0.00 0.00 52 1016.8
20260507121010 73 359 1.7 4.3 0.00 0.00 0.00 44 1016.7
20260507120510 73 35 2.6 3.5 0.00 0.00 0.00 41 1016.9
20260507120037 72 20 0.9 3.5 0.00 0.00 0.00 45 1017.0
20260507115509 72 335 0.9 3.5 0.00 0.00 0.00 48 1016.9
20260507115011 72 325 1.7 3.5 0.00 0.00 0.00 45 1016.9
20260507114527 72 351 0.9 2.6 0.00 0.00 0.00 42 1016.8
20260507114012 72 356 0.9 2.6 0.00 0.00 0.00 43 1016.8
20260507113510 71 10 1.7 2.6 0.00 0.00 0.00 44 1016.9
20260507113028 71 4 0.9 2.6 0.00 0.00 0.00 46 1017.0
20260507112513 71 354 0.9 2.6 0.00 0.00 0.00 45 1017.0
20260507112008 71 25 0.9 2.6 0.00 0.00 0.00 45 1016.9
20260507111528 72 15 0.9 2.6 0.00 0.00 0.00 45 1017.0
20260507111009 71 354 0.9 1.7 0.00 0.00 0.00 45 1016.9
20260507110508 72 5 0.0 1.7 0.00 0.00 0.00 48 1017.0
20260507101007 67 359 1.7 5.2 0.00 0.00 0.00 64 1017.3
20260507090508 66 318 2.6 5.2 0.00 0.00 0.00 73 1017.3
20260507085508 68 347 1.7 5.2 0.00 0.00 0.00 69 1017.3
20260507084012 68 14 2.6 7.0 0.00 0.00 0.00 64 1017.3
20260507083510 69 7 1.7 5.2 0.00 0.00 0.00 61 1017.3
20260507083026 69 356 1.7 5.2 0.00 0.00 0.00 56 1017.2
20260507082511 68 316 2.6 5.2 0.00 0.00 0.00 52 1017.3
20260507082010 68 325 0.9 3.5 0.00 0.00 0.00 62 1017.4
20260507081540 68 23 1.7 3.5 0.00 0.00 0.00 57 1017.4
20260507081007 67 349 0.9 3.5 0.00 0.00 0.00 57 1017.3
20260507080511 67 2 0.9 3.5 0.00 0.00 0.00 57 1017.4
20260507080027 67 338 0.9 2.6 0.00 0.00 0.00 57 1017.2
20260507075514 67 13 0.9 3.5 0.00 0.00 0.00 56 1017.2
20260507075011 67 293 0.9 3.5 0.00 0.00 0.00 60 1017.1
20260507074545 66 356 1.7 4.3 0.00 0.00 0.00 63 1017.1
20260507074008 66 353 1.7 4.3 0.00 0.00 0.00 63 1017.1
20260507073510 66 15 2.6 4.3 0.00 0.00 0.00 61 1017.3
20260507073028 66 355 1.7 4.3 0.00 0.00 0.00 63 1017.4
20260507072510 65 320 1.7 5.2 0.00 0.00 0.00 62 1017.5
20260507072012 65 324 1.7 5.2 0.00 0.00 0.00 63 1017.4
20260507071526 65 338 2.6 5.2 0.00 0.00 0.00 64 1017.3
20260507071012 65 338 2.6 4.3 0.00 0.00 0.00 63 1017.2
20260507070512 65 305 1.7 3.5 0.00 0.00 0.00 58 1017.2
20260507070028 65 315 1.7 3.5 0.00 0.00 0.00 59 1017.1
20260507065512 66 309 0.9 2.6 0.00 0.00 0.00 60 1017.2
20260507065011 66 354 0.9 4.3 0.00 0.00 0.00 64 1017.3
20260507064528 65 318 0.9 4.3 0.00 0.00 0.00 59 1017.3
20260507064010 65 327 0.9 3.5 0.00 0.00 0.00 58 1017.2
20260507063511 64 319 1.7 3.5 0.00 0.00 0.00 57 1017.2
20260507063028 64 321 1.7 3.5 0.00 0.00 0.00 59 1017.2
20260507062510 65 9 1.7 3.5 0.00 0.00 0.00 61 1017.2
20260507062010 65 319 0.9 3.5 0.00 0.00 0.00 60 1017.2
20260507061532 65 344 0.9 2.6 0.00 0.00 0.00 55 1017.1
20260507061011 66 4 0.9 2.6 0.00 0.00 0.00 52 1017.1
20260507060508 66 36 0.0 2.6 0.00 0.00 0.00 53 1017.1
20260507060028 66 6 0.9 1.7 0.00 0.00 0.00 52 1017.0
20260507055509 66 0 0.0 0.9 0.00 0.00 0.00 52 1017.1
20260507055014 65 359 0.0 1.7 0.00 0.00 0.00 57 1017.0
20260507054528 64 357 0.0 1.7 0.00 0.00 0.00 60 1017.0
20260507054012 63 358 0.9 1.7 0.00 0.00 0.00 61 1017.1
20260507053513 63 320 0.9 1.7 0.00 0.00 0.00 61 1017.1
20260507053027 63 7 0.9 1.7 0.00 0.00 0.00 58 1017.0
20260507052510 63 317 0.9 1.7 0.00 0.00 0.00 59 1016.9
20260507052014 62 308 0.9 1.7 0.00 0.00 0.00 59 1016.8
20260507051528 62 309 0.0 1.7 0.00 0.00 0.00 61 1016.8
20260507051017 61 309 0.0 1.7 0.00 0.00 0.00 60 1016.8
20260507050510 62 0 0.0 0.9 0.00 0.00 0.00 55 1016.6
20260507050030 63 216 0.0 0.9 0.00 0.00 0.00 54 1016.6
20260507045513 63 0 0.0 0.9 0.00 0.00 0.00 57 1016.5
20260507045010 63 216 0.0 0.9 0.00 0.00 0.00 55 1016.4
20260507044527 62 0 0.0 0.9 0.00 0.00 0.00 57 1016.3
20260507044011 60 0 0.0 0.9 0.00 0.00 0.00 56 1016.2
20260507043512 60 216 0.0 0.9 0.00 0.00 0.00 57 1016.1
20260507043027 59 206 0.0 1.7 0.00 0.00 0.00 58 1016.0
20260507042510 58 160 0.0 2.6 0.00 0.00 0.00 59 1016.0
20260507042012 57 188 0.9 2.6 0.00 0.00 0.00 60 1015.9
20260507041531 56 188 1.7 2.6 0.00 0.00 0.00 61 1015.7
20260507041013 55 243 0.9 2.6 0.00 0.00 0.00 63 1015.8
20260507040510 55 207 0.9 1.7 0.00 0.00 0.00 66 1015.9
20260507040027 54 220 0.0 1.7 0.00 0.00 0.00 67 1015.7
20260507035510 54 198 0.0 1.7 0.00 0.00 0.00 67 1015.7
20260507035014 54 181 0.0 2.6 0.00 0.00 0.00 67 1015.9
20260507034530 54 209 0.9 2.6 0.00 0.00 0.00 67 1015.9
20260507034009 54 201 0.9 1.7 0.00 0.00 0.00 67 1015.9
20260507033510 54 215 0.9 1.7 0.00 0.00 0.00 67 1015.9
20260507033031 53 205 0.0 1.7 0.00 0.00 0.00 66 1015.7
20260507032512 54 172 0.0 1.7 0.00 0.00 0.00 66 1015.8
20260507032018 54 226 0.9 1.7 0.00 0.00 0.00 66 1015.8
20260507031527 53 0 0.0 1.7 0.00 0.00 0.00 66 1015.8
20260507031015 53 200 0.9 1.7 0.00 0.00 0.00 65 1015.8
20260507030512 54 210 0.9 1.7 0.00 0.00 0.00 67 1015.7
20260507030029 53 229 0.9 1.7 0.00 0.00 0.00 67 1015.8
20260507025509 53 216 0.9 2.6 0.00 0.00 0.00 67 1015.8
20260507025012 53 226 0.9 2.6 0.00 0.00 0.00 67 1015.8
20260507024527 53 212 0.9 2.6 0.00 0.00 0.00 67 1015.8
20260507024012 53 214 0.9 2.6 0.00 0.00 0.00 67 1015.9
20260507023511 54 205 0.9 2.6 0.00 0.00 0.00 67 1015.8
20260507023028 54 219 0.9 1.7 0.00 0.00 0.00 67 1015.8
20260507022510 54 217 0.9 1.7 0.00 0.00 0.00 66 1015.9
20260507022007 55 0 0.0 1.7 0.00 0.00 0.00 64 1015.9
20260507021528 55 169 0.0 1.7 0.00 0.00 0.00 69 1015.8
20260507021009 54 0 0.0 1.7 0.00 0.00 0.00 65 1015.8
20260507020512 54 239 0.0 1.7 0.00 0.00 0.00 64 1015.8
20260507020028 54 159 0.0 1.7 0.00 0.00 0.00 63 1015.8
20260507015507 54 0 0.0 2.6 0.00 0.00 0.00 62 1015.9
20260507015011 54 216 0.0 2.6 0.00 0.00 0.00 63 1015.8
20260507014542 54 197 0.0 2.6 0.00 0.00 0.00 62 1015.8
20260507014008 54 215 0.0 2.6 0.00 0.00 0.00 61 1015.9
20260507013508 54 0 0.0 2.6 0.00 0.00 0.00 61 1015.8
20260507013028 54 0 0.0 1.7 0.00 0.00 0.00 62 1015.8
20260507012012 55 302 0.0 2.6 0.00 0.00 0.00 64 1015.8
20260507011529 55 0 0.9 2.6 0.00 0.00 0.00 65 1015.8
20260507011010 54 157 0.0 2.6 0.00 0.00 0.00 62 1015.9
20260507010508 54 0 0.0 2.6 0.00 0.00 0.00 61 1015.8
20260507010032 54 158 0.9 2.6 0.00 0.00 0.00 62 1015.8
20260507005510 55 202 0.9 2.6 0.00 0.00 0.00 62 1015.8
20260507005013 55 150 0.0 2.6 0.00 0.00 0.00 63 1015.9
20260507004525 55 224 0.9 1.7 0.00 0.00 0.00 63 1015.9
20260507004015 56 235 0.9 1.7 0.00 0.00 0.00 64 1015.8
20260507003509 57 0 0.0 1.7 0.00 0.00 0.00 69 1015.9
20260507003027 56 0 0.0 1.7 0.00 0.00 0.00 65 1016.0
20260507001017 57 184 0.9 2.6 0.00 0.00 0.00 61 1016.0
20260507000508 58 229 0.0 1.7 0.00 0.00 0.00 59 1016.0
20260507000035 58 205 0.0 6.1 0.00 0.00 0.00 59 1016.1
20260506235509 59 0 0.0 6.1 0.00 0.00 0.00 60 1016.0
20260506235010 60 226 1.7 7.8 0.00 0.00 0.00 67 1016.1
20260506234527 59 265 2.6 7.8 0.00 0.00 0.00 71 1016.1
20260506234010 58 268 0.9 5.2 0.00 0.00 0.00 66 1016.0
20260506233510 57 279 0.9 2.6 0.00 0.00 0.00 64 1016.1
20260506233026 57 0 0.0 1.7 0.00 0.00 0.00 61 1016.0
20260506232510 57 0 0.0 3.5 0.00 0.00 0.00 61 1016.0
20260506231528 57 0 0.0 4.3 0.00 0.00 0.00 62 1016.0
20260506230510 59 304 0.0 4.3 0.00 0.00 0.00 72 1016.2
20260506225510 57 0 0.0 1.7 0.00 0.00 0.00 67 1016.2
20260506225008 56 238 0.9 1.7 0.00 0.00 0.00 63 1016.3
20260506224529 57 0 0.9 2.6 0.00 0.00 0.00 62 1016.2
20260506224008 57 0 0.0 2.6 0.00 0.00 0.00 61 1016.4
20260506223511 57 240 0.0 2.6 0.00 0.00 0.00 61 1016.3
20260506223026 57 175 0.9 2.6 0.00 0.00 0.00 63 1016.3
20260506222509 57 0 0.0 2.6 0.00 0.00 0.00 64 1016.3
20260506222009 57 147 0.9 1.7 0.00 0.00 0.00 64 1016.3
20260506221526 57 151 0.0 1.7 0.00 0.00 0.00 60 1016.3
20260506221014 58 220 0.0 1.7 0.00 0.00 0.00 63 1016.3
20260506220511 57 210 0.0 1.7 0.00 0.00 0.00 60 1016.3
20260506220026 57 206 0.9 1.7 0.00 0.00 0.00 59 1016.1
20260506215511 58 0 0.9 1.7 0.00 0.00 0.00 59 1016.2
20260506215008 58 162 0.0 1.7 0.00 0.00 0.00 59 1016.2
20260506214528 59 0 0.0 1.7 0.00 0.00 0.00 60 1016.3
20260506214009 60 0 0.0 1.7 0.00 0.00 0.00 62 1016.4
20260506213511 61 203 0.0 2.6 0.00 0.00 0.00 70 1016.4
20260506213112 61 0 0.0 4.3 0.00 0.00 0.00 71 1016.3
20260506212510 62 266 0.9 4.3 0.00 0.00 0.00 72 1016.4
20260506212009 62 317 0.0 3.5 0.00 0.00 0.00 70 1016.5
20260506211527 62 0 0.9 8.7 0.00 0.00 0.00 69 1016.5
20260506211010 62 304 1.7 8.7 0.00 0.00 0.00 69 1016.6
20260506210508 63 293 1.7 7.0 0.00 0.00 0.00 68 1016.7
20260506210028 63 356 1.7 4.3 0.00 0.00 0.00 59 1016.7
20260506205510 63 0 0.0 3.5 0.00 0.00 0.00 40 1016.7
20260506205012 64 139 0.0 3.5 0.00 0.00 0.00 40 1016.5
20260506204529 64 122 1.7 6.1 0.00 0.00 0.00 41 1016.5
20260506204010 64 106 1.7 6.1 0.00 0.00 0.00 45 1016.7
20260506203517 63 76 3.5 6.1 0.00 0.00 0.00 45 1016.7
20260506203026 63 113 1.7 4.3 0.00 0.00 0.00 43 1016.6
20260506202512 63 84 1.7 3.5 0.00 0.00 0.00 42 1016.6
20260506202012 63 101 0.9 1.7 0.00 0.00 0.00 41 1016.6
20260506201526 63 167 0.0 3.5 0.00 0.00 0.00 42 1016.6
20260506201008 63 226 0.0 3.5 0.00 0.00 0.00 41 1016.6
20260506200512 63 236 1.7 3.5 0.00 0.00 0.00 40 1016.5
20260506200025 64 131 0.0 2.6 0.00 0.00 0.00 40 1016.4
20260506195510 63 73 0.0 1.7 0.00 0.00 0.00 41 1016.3
20260506195010 64 144 0.0 3.5 0.00 0.00 0.00 40 1016.3
20260506194526 64 153 0.9 3.5 0.00 0.00 0.00 39 1016.2
20260506194010 65 155 0.9 3.5 0.00 0.00 0.00 39 1016.1
20260506193511 65 142 0.0 2.6 0.00 0.00 0.00 37 1016.2
20260506193031 65 68 0.9 2.6 0.00 0.00 0.00 36 1016.3
20260506192514 65 0 0.9 2.6 0.00 0.00 0.00 36 1016.2
20260506192013 65 173 0.9 4.3 0.00 0.00 0.00 36 1016.2
20260506191528 66 125 1.7 4.3 0.00 0.00 0.00 35 1016.1
20260506191010 66 119 1.7 4.3 0.00 0.00 0.00 36 1016.1
20260506190509 66 0 0.0 4.3 0.00 0.00 0.00 35 1016.0
20260506190025 67 91 2.6 4.3 0.00 0.00 0.00 33 1016.0
20260506185509 69 62 0.9 3.5 0.00 0.00 0.00 31 1016.0
20260506185009 69 0 0.0 2.6 0.00 0.00 0.00 28 1015.9
20260506184527 69 272 0.9 5.2 0.00 0.00 0.00 27 1015.8
20260506184011 70 239 1.7 6.1 0.00 0.00 0.00 27 1015.7
20260506183513 70 264 0.9 6.1 0.00 0.00 0.00 27 1015.7
20260506183028 70 236 1.7 6.1 0.00 0.00 0.00 27 1015.5
20260506182511 70 259 0.9 5.2 0.00 0.00 0.00 28 1015.4
20260506182010 70 252 1.7 7.0 0.00 0.00 0.00 28 1015.4
20260506181530 70 248 0.9 7.0 0.00 0.00 0.00 28 1015.3
20260506181015 70 296 0.9 6.1 0.00 0.00 0.00 27 1015.4
20260506180515 70 269 0.9 4.3 0.00 0.00 0.00 27 1015.4
20260506180034 70 303 0.9 6.1 0.00 0.00 0.00 27 1015.3
20260506175513 70 263 0.9 6.1 0.00 0.00 0.00 27 1015.2
20260506175008 70 301 0.0 4.3 0.00 0.00 0.00 27 1015.2
20260506174528 71 275 0.9 4.3 0.00 0.00 0.00 26 1015.2
20260506174010 71 290 0.9 4.3 0.00 0.00 0.00 25 1015.0
20260506173512 71 265 0.9 4.3 0.00 0.00 0.00 25 1015.1
20260506173028 71 261 1.7 5.2 0.00 0.00 0.00 25 1015.0
20260506172511 71 300 0.9 5.2 0.00 0.00 0.00 25 1015.0
20260506172013 71 294 0.9 7.0 0.00 0.00 0.00 24 1015.0